[[{"header":{"parameterUnit":"m.s-1","parameterCategory":2,"la1":30.2991,"la2":30.254,"lo1":-89.0895,"lo2":-89.0444,"dy":0.0017,"dx":0.0017,"nx":28,"ny":28,"refTime":"2023-08-15T21:00:00:Z","depth":"0","parameterNumber":2,"parameterNumberName":"U-component_of_CURRENTS"},"data":[0,0,0,0,0,0,0,0,0,0,0,0,0,0,0,0,0,0,0,0,0,0,0,0,0,0,0,0,0,0,0,0,0,0,0,0,0,0,0,0,0,0,0,0,0,0,0,0,0,0,0,0,0,0,0,0,0,0,-0.2407,-0.2407,0,-0.2426,-0.2427,-0.2427,-0.2401,-0.24,-0.2399,-0.2398,-0.2338,-0.2338,-0.2337,0,0,0,0,0,0,0,0,0,0,0,0,0,-0.2501,-0.2498,-0.2407,-0.2407,-0.2407,-0.2426,-0.2427,-0.2427,-0.2401,-0.24,-0.2399,-0.2398,-0.2338,-0.2338,-0.2337,0,0,0,0,0,0,0,0,0,0,0,0,0,-0.2484,-0.2497,-0.2407,-0.2396,-0.2395,-0.2426,-0.2427,-0.2427,-0.2401,-0.24,-0.2398,-0.2397,-0.2339,-0.2338,-0.2337,-0.236,0,0,-0.2334,-0.2333,0,0,0,0,0,0,0,0,-0.2485,-0.2481,-0.2398,-0.2397,-0.2396,-0.2409,-0.2438,-0.2401,-0.2402,-0.24,-0.2398,-0.2396,-0.2355,-0.2353,-0.2362,-0.2357,-0.2355,-0.2334,-0.2333,-0.2333,-0.2332,0,0,0,0,0,0,0,-0.2486,-0.2481,-0.2415,-0.2398,-0.2397,-0.2443,-0.2438,-0.2432,-0.2384,-0.24,-0.2398,-0.24,-0.2354,-0.2363,-0.236,-0.2354,-0.2334,-0.2333,-0.2332,-0.2332,-0.2285,-0.2284,0,0,0,0,0,0,-0.2475,-0.2481,-0.2414,-0.2416,-0.2437,-0.2442,-0.2436,-0.2407,-0.2386,-0.2382,-0.2401,-0.2398,-0.2365,-0.2361,-0.2358,-0.2303,-0.2333,-0.2332,-0.2331,-0.2285,-0.2285,-0.2284,0,0,0,0,0,0,-0.2477,-0.2468,-0.2414,-0.2451,-0.2447,-0.2441,-0.2409,-0.2408,-0.2408,-0.2388,-0.2382,-0.24,-0.2364,-0.2359,-0.2331,-0.2304,-0.2331,-0.233,-0.2286,-0.2285,-0.2284,-0.2246,0,0,0,0,0,0,-0.2479,-0.2468,-0.2446,-0.2448,-0.2444,-0.2416,-0.2411,-0.241,-0.2411,-0.2408,-0.2386,-0.2379,-0.2363,-0.2332,-0.233,-0.2303,-0.2329,-0.2287,-0.2286,-0.2285,-0.2248,-0.2244,-0.224,0,0,0,0,0,-0.2482,-0.2445,-0.2444,-0.2437,-0.2411,-0.2415,-0.2417,-0.2411,-0.2413,-0.2407,-0.2387,-0.2379,-0.2322,-0.2331,-0.2328,-0.23,-0.2288,-0.2286,-0.2285,-0.225,-0.2245,-0.224,0,0,0,0,0,0,-0.247,-0.2439,-0.2438,-0.2392,-0.2401,-0.241,-0.2399,-0.2414,-0.24,-0.239,-0.2376,-0.2368,-0.233,-0.2329,-0.2339,-0.2284,-0.2302,-0.23,-0.2277,-0.2272,-0.2268,-0.2298,-0.2329,0,0,0,0,0,-0.2461,-0.2421,-0.2421,-0.2386,-0.2384,-0.2399,-0.2402,-0.2406,-0.2398,-0.2391,-0.2382,-0.2361,-0.2327,-0.231,-0.229,-0.2269,-0.2273,-0.2249,-0.2245,-0.2242,-0.2264,-0.2238,-0.2234,-0.2279,-0.2279,-0.2279,0,0,-0.2448,-0.2426,-0.2404,-0.2383,-0.2383,-0.2385,-0.2395,-0.2393,-0.2394,-0.2386,-0.2373,-0.235,-0.2319,-0.2282,-0.2265,-0.2274,-0.2227,-0.224,-0.2237,-0.2262,-0.2236,-0.2232,-0.2228,-0.2278,-0.2278,-0.2279,0,0,-0.2416,-0.2382,-0.2349,-0.2355,-0.2356,-0.2368,-0.2369,-0.2383,-0.2379,-0.2372,-0.2354,-0.2325,-0.2293,-0.2266,-0.2244,-0.2216,-0.2208,-0.2197,-0.2199,-0.2172,-0.2168,-0.2165,-0.2148,-0.2144,-0.2194,-0.2194,-0.2194,0,-0.2407,-0.2361,-0.2348,-0.2335,-0.2335,-0.2359,-0.2354,-0.236,-0.2369,-0.2356,-0.2356,-0.2305,-0.2286,-0.2232,-0.2219,-0.2207,-0.2194,-0.2213,-0.2166,-0.2164,-0.2161,-0.2145,-0.2141,-0.2192,-0.2192,-0.2192,-0.2193,0,-0.2364,-0.2339,-0.2321,-0.2305,-0.2308,-0.2304,-0.2318,-0.2318,-0.2321,-0.2327,-0.2287,-0.227,-0.2238,-0.2218,-0.221,-0.2173,-0.2169,-0.2163,-0.2178,-0.2154,-0.2138,-0.2135,-0.2189,-0.219,-0.219,-0.2191,0,0,-0.2303,-0.2294,-0.2287,-0.2285,-0.2292,-0.2291,-0.2283,-0.2277,-0.2265,-0.2268,-0.2246,-0.2204,-0.2208,-0.2189,-0.2172,-0.2161,-0.2127,-0.2158,-0.2157,-0.2143,-0.2068,-0.2028,-0.202,-0.2101,-0.21,-0.21,-0.2058,0,-0.2275,-0.2249,-0.2254,-0.2243,-0.223,-0.2249,-0.2241,-0.224,-0.2235,-0.2224,-0.2205,-0.2178,-0.2189,-0.2168,-0.2158,-0.2131,-0.2118,-0.214,-0.2095,-0.2094,-0.2062,-0.2015,-0.1966,-0.1921,-0.2054,-0.2054,-0.2053,0,-0.2216,-0.2212,-0.2193,-0.2201,-0.2197,-0.2202,-0.2184,-0.2186,-0.2172,-0.2165,-0.2147,-0.2143,-0.2123,-0.2142,-0.2102,-0.2109,-0.2099,-0.2088,-0.2085,-0.2068,-0.2047,-0.197,-0.191,-0.186,-0.2048,-0.2048,-0.2049,0,-0.2152,-0.2158,-0.2143,-0.2146,-0.2165,-0.2155,-0.2165,-0.2154,-0.2135,-0.2131,-0.2112,-0.2101,-0.2079,-0.2071,-0.2061,-0.2071,-0.2024,-0.2026,-0.1984,-0.1981,-0.1945,-0.194,-0.1837,-0.201,-0.201,-0.201,-0.2011,0,-0.2091,-0.2078,-0.2115,-0.2104,-0.2085,-0.2115,-0.2085,-0.2091,-0.2085,-0.2061,-0.2081,-0.2062,-0.206,-0.2035,-0.2042,-0.1994,-0.1999,-0.1985,-0.1963,-0.1928,-0.1922,-0.1884,-0.1871,-0.2009,-0.2009,-0.201,-0.201,0,-0.1998,-0.2027,-0.2011,-0.2041,-0.2045,-0.2025,-0.203,-0.2011,-0.2022,-0.1993,-0.1989,-0.2001,-0.1978,-0.1973,-0.1953,-0.1944,-0.1871,-0.191,-0.1876,-0.1851,-0.1761,-0.1749,-0.1658,-0.1594,-0.1848,-0.1846,-0.1845,0,-0.1943,-0.1923,-0.1946,-0.194,-0.195,-0.1939,-0.1927,-0.1956,-0.1944,-0.1958,-0.194,-0.1925,-0.1932,-0.1885,-0.1861,-0.184,-0.1809,-0.1767,-0.1785,-0.1743,-0.1713,-0.1716,-0.1669,-0.1718,-0.1716,-0.1715,-0.1713,0,-0.1839,-0.1849,-0.1844,-0.1833,-0.1828,-0.1823,-0.1823,-0.1809,-0.185,-0.1855,-0.1878,-0.1899,-0.1868,-0.1838,-0.1791,-0.1764,-0.1691,-0.1731,-0.1687,-0.1604,-0.1601,-0.1533,-0.1771,-0.1698,-0.17,-0.1701,-0.1702,-0.1702,-0.1754,-0.1727,-0.1728,-0.171,-0.1718,-0.1718,-0.1688,-0.1729,-0.1733,-0.1761,-0.182,-0.1847,-0.1825,-0.1768,-0.1707,-0.1562,-0.1594,-0.1522,-0.151,-0.1519,-0.1449,-0.166,-0.1561,-0.1562,-0.1563,-0.1563,-0.1564,0,-0.1637,-0.1626,-0.1609,-0.1602,-0.1593,-0.1625,-0.1622,-0.161,-0.163,-0.1694,-0.1746,-0.1765,-0.1716,-0.1642,-0.1509,-0.1386,-0.1342,-0.1308,-0.13,-0.1262,-0.1443,-0.1428,-0.1295,-0.1295,-0.1295,-0.1295,-0.1296,-0.1296,-0.1574,-0.1518,-0.1515,-0.1477,-0.1487,-0.1451,-0.144,-0.1464,-0.149,-0.1539,-0.1575,-0.1648,-0.164,-0.1544,-0.1328,-0.1236,-0.1138,-0.1106,-0.1076,-0.1213,-0.1232,-0.1251,-0.1233,-0.1062,-0.1062,-0.088,-0.0879,-0.0878]},{"header":{"parameterUnit":"m.s-1","parameterCategory":2,"la1":30.2991,"la2":30.254,"lo1":-89.0895,"lo2":-89.0444,"dy":0.0017,"dx":0.0017,"nx":28,"ny":28,"refTime":"2023-08-15T21:00:00:Z","depth":"0","parameterNumber":3,"parameterNumberName":"V-component_of_CURRENTS"},"data":[0,0,0,0,0,0,0,0,0,0,0,0,0,0,0,0,0,0,0,0,0,0,0,0,0,0,0,0,0,0,0,0,0,0,0,0,0,0,0,0,0,0,0,0,0,0,0,0,0,0,0,0,0,0,0,0,0,0,-0.1184,-0.1184,0,-0.1147,-0.1146,-0.1145,-0.1135,-0.1136,-0.1136,-0.1137,-0.0976,-0.0972,-0.0967,0,0,0,0,0,0,0,0,0,0,0,0,0,-0.124,-0.1238,-0.1184,-0.1184,-0.1184,-0.1147,-0.1146,-0.1145,-0.1135,-0.1136,-0.1136,-0.1137,-0.0978,-0.0972,-0.0966,0,0,0,0,0,0,0,0,0,0,0,0,0,-0.1207,-0.1238,-0.1185,-0.1177,-0.1176,-0.1147,-0.1146,-0.1145,-0.1135,-0.1136,-0.1136,-0.1137,-0.098,-0.0973,-0.0966,-0.0905,0,0,-0.0944,-0.0941,0,0,0,0,0,0,0,0,-0.1209,-0.1204,-0.1178,-0.1178,-0.1177,-0.1149,-0.1107,-0.106,-0.1135,-0.1147,-0.1137,-0.1138,-0.1024,-0.1013,-0.1002,-0.0898,-0.0891,-0.0943,-0.0939,-0.0936,-0.0934,0,0,0,0,0,0,0,-0.1211,-0.1206,-0.1166,-0.1178,-0.1177,-0.1173,-0.1169,-0.1098,-0.1077,-0.1146,-0.1146,-0.1147,-0.1023,-0.1009,-0.0997,-0.0889,-0.0943,-0.0937,-0.0933,-0.093,-0.0686,-0.0684,0,0,0,0,0,0,-0.1222,-0.1208,-0.1167,-0.1165,-0.1199,-0.1172,-0.1167,-0.1155,-0.108,-0.1072,-0.1146,-0.1147,-0.102,-0.1006,-0.0992,-0.0882,-0.0936,-0.0929,-0.0925,-0.0688,-0.0685,-0.0683,0,0,0,0,0,0,-0.1223,-0.1218,-0.1169,-0.1189,-0.1183,-0.117,-0.1156,-0.1153,-0.1139,-0.1082,-0.1071,-0.1136,-0.102,-0.1002,-0.0895,-0.0877,-0.0926,-0.0919,-0.069,-0.0687,-0.0684,-0.0683,0,0,0,0,0,0,-0.1224,-0.1218,-0.1213,-0.119,-0.1183,-0.1152,-0.1156,-0.1152,-0.114,-0.114,-0.1069,-0.1056,-0.102,-0.0906,-0.0888,-0.0868,-0.0914,-0.0693,-0.0689,-0.0685,-0.0686,-0.068,-0.0676,0,0,0,0,0,-0.1226,-0.1212,-0.1213,-0.1208,-0.1176,-0.1152,-0.1148,-0.114,-0.1139,-0.113,-0.1056,-0.1058,-0.0869,-0.0897,-0.0877,-0.0855,-0.0695,-0.069,-0.0685,-0.0689,-0.0682,-0.0676,0,0,0,0,0,0,-0.1219,-0.1209,-0.121,-0.1189,-0.1176,-0.1152,-0.1137,-0.1136,-0.1075,-0.1063,-0.1011,-0.099,-0.0892,-0.0864,-0.0897,-0.0771,-0.0789,-0.078,-0.0799,-0.0792,-0.0786,-0.0831,-0.0908,0,0,0,0,0,-0.122,-0.1215,-0.1198,-0.1183,-0.117,-0.1153,-0.1143,-0.1139,-0.1088,-0.1066,-0.1018,-0.0946,-0.0856,-0.0817,-0.0744,-0.0666,-0.067,-0.0642,-0.0637,-0.0633,-0.0654,-0.0619,-0.0614,-0.0667,-0.0667,-0.0667,0,0,-0.1216,-0.1208,-0.1206,-0.1184,-0.1164,-0.1142,-0.1147,-0.1126,-0.1106,-0.105,-0.099,-0.0918,-0.0826,-0.0737,-0.0694,-0.0712,-0.0618,-0.0627,-0.0624,-0.0647,-0.0614,-0.0609,-0.0605,-0.0663,-0.0664,-0.0664,0,0,-0.1193,-0.1188,-0.1171,-0.1159,-0.114,-0.1132,-0.1127,-0.1101,-0.1085,-0.1024,-0.0959,-0.0877,-0.0776,-0.0702,-0.0649,-0.0569,-0.0583,-0.0547,-0.0564,-0.0529,-0.0526,-0.0523,-0.0528,-0.0526,-0.0555,-0.0555,-0.0555,0,-0.1189,-0.1163,-0.1162,-0.1136,-0.1127,-0.1126,-0.1101,-0.1078,-0.1027,-0.0997,-0.101,-0.0836,-0.0766,-0.0631,-0.0607,-0.0561,-0.0559,-0.0598,-0.0527,-0.0524,-0.0521,-0.0527,-0.0524,-0.0554,-0.0554,-0.0554,-0.0554,0,-0.1151,-0.1132,-0.1113,-0.109,-0.108,-0.1059,-0.1039,-0.1015,-0.101,-0.0993,-0.0893,-0.0802,-0.071,-0.0667,-0.0612,-0.0532,-0.0542,-0.052,-0.0556,-0.0517,-0.0524,-0.0522,-0.0553,-0.0554,-0.0554,-0.0554,0,0,-0.1133,-0.1098,-0.1092,-0.1077,-0.1058,-0.1045,-0.1002,-0.0964,-0.0937,-0.0905,-0.0864,-0.0723,-0.0707,-0.0645,-0.0567,-0.054,-0.0511,-0.0531,-0.0529,-0.0561,-0.0466,-0.0521,-0.0523,-0.0478,-0.0477,-0.0476,-0.0483,0,-0.1101,-0.1061,-0.1053,-0.1017,-0.0991,-0.0981,-0.095,-0.092,-0.0902,-0.0865,-0.0792,-0.072,-0.0687,-0.0639,-0.0604,-0.0514,-0.0503,-0.0514,-0.0479,-0.0479,-0.0552,-0.0521,-0.0532,-0.0543,-0.0481,-0.0481,-0.048,0,-0.106,-0.1043,-0.101,-0.0983,-0.097,-0.0958,-0.092,-0.0892,-0.0837,-0.082,-0.0763,-0.0723,-0.0634,-0.064,-0.0537,-0.0545,-0.052,-0.0485,-0.0484,-0.054,-0.0529,-0.0567,-0.0541,-0.0507,-0.0477,-0.0477,-0.0477,0,-0.1054,-0.1009,-0.0992,-0.0984,-0.0955,-0.0934,-0.092,-0.0876,-0.0852,-0.0795,-0.079,-0.0696,-0.066,-0.0603,-0.0546,-0.0536,-0.0478,-0.0448,-0.0483,-0.0488,-0.0496,-0.0503,-0.0458,-0.0416,-0.0416,-0.0416,-0.0416,0,-0.1028,-0.1004,-0.099,-0.0982,-0.0962,-0.0938,-0.0914,-0.0881,-0.0842,-0.0826,-0.0773,-0.0756,-0.0655,-0.0614,-0.0559,-0.0527,-0.0489,-0.05,-0.049,-0.0496,-0.0502,-0.0474,-0.0408,-0.0416,-0.0416,-0.0416,-0.0416,0,-0.1012,-0.1004,-0.0983,-0.0964,-0.096,-0.0948,-0.0928,-0.0913,-0.0872,-0.0854,-0.0841,-0.0792,-0.0741,-0.0662,-0.0573,-0.0557,-0.0468,-0.0508,-0.0548,-0.0544,-0.0555,-0.0488,-0.0391,-0.0349,-0.0548,-0.0549,-0.055,0,-0.0995,-0.0986,-0.0988,-0.0996,-0.0989,-0.0973,-0.0973,-0.0932,-0.0923,-0.0888,-0.089,-0.0842,-0.0825,-0.0735,-0.0671,-0.0603,-0.0507,-0.0596,-0.0577,-0.0574,-0.0489,-0.0412,-0.0378,-0.0584,-0.0585,-0.0586,-0.0587,0,-0.0967,-0.098,-0.0977,-0.1006,-0.1016,-0.1021,-0.1015,-0.1012,-0.0978,-0.0976,-0.0982,-0.0966,-0.0892,-0.0837,-0.0754,-0.07,-0.0536,-0.062,-0.0577,-0.0494,-0.044,-0.0391,-0.0587,-0.0596,-0.0595,-0.0595,-0.0594,-0.0594,-0.095,-0.0956,-0.098,-0.1005,-0.1034,-0.107,-0.1079,-0.1086,-0.1094,-0.1093,-0.1074,-0.1063,-0.0954,-0.0844,-0.0798,-0.0698,-0.0613,-0.0655,-0.0571,-0.0494,-0.0457,-0.0711,-0.0732,-0.0732,-0.0732,-0.0732,-0.0732,0,-0.092,-0.0947,-0.0978,-0.1024,-0.1078,-0.1084,-0.1112,-0.1131,-0.117,-0.1166,-0.1176,-0.109,-0.0996,-0.0866,-0.0722,-0.0659,-0.0581,-0.059,-0.0462,-0.0427,-0.0633,-0.0642,-0.0691,-0.0692,-0.0692,-0.0692,-0.0692,-0.0692,-0.0902,-0.0929,-0.096,-0.1052,-0.1098,-0.116,-0.1184,-0.1218,-0.1224,-0.1228,-0.1194,-0.115,-0.0961,-0.0675,-0.0546,-0.0511,-0.0377,-0.0366,-0.0294,-0.0432,-0.0431,-0.043,-0.0427,-0.0431,-0.043,-0.0111,-0.0108,-0.0105]}],[{"header":{"parameterUnit":"m.s-1","parameterCategory":2,"la1":30.2991,"la2":30.254,"lo1":-89.0895,"lo2":-89.0444,"dy":0.0017,"dx":0.0017,"nx":28,"ny":28,"refTime":"2023-08-15T21:00:00:Z","depth":"2","parameterNumber":2,"parameterNumberName":"U-component_of_CURRENTS"},"data":[0,0,0,0,0,0,0,0,0,0,0,0,0,0,0,0,0,0,0,0,0,0,0,0,0,0,0,0,0,0,0,0,0,0,0,0,0,0,0,0,0,0,0,0,0,0,0,0,0,0,0,0,0,0,0,0,0,0,-0.217,-0.2169,0,-0.217,-0.217,-0.2171,-0.2195,-0.2195,-0.2196,-0.2196,-0.2176,-0.2175,-0.2174,0,0,0,0,0,0,0,0,0,0,0,0,0,-0.2248,-0.2246,-0.217,-0.2169,-0.2169,-0.217,-0.217,-0.2171,-0.2195,-0.2195,-0.2196,-0.2196,-0.2176,-0.2175,-0.2174,0,0,0,0,0,0,0,0,0,0,0,0,0,-0.223,-0.2246,-0.217,-0.2179,-0.218,-0.217,-0.217,-0.2171,-0.2195,-0.2195,-0.2196,-0.2196,-0.2176,-0.2175,-0.2174,-0.2156,0,0,-0.217,-0.2169,0,0,0,0,0,0,0,0,-0.2231,-0.2228,-0.2178,-0.2178,-0.2179,-0.218,-0.219,-0.2164,-0.2195,-0.2192,-0.2196,-0.2197,-0.2173,-0.2172,-0.2176,-0.2155,-0.2154,-0.217,-0.2169,-0.2169,-0.2168,0,0,0,0,0,0,0,-0.2232,-0.2228,-0.2173,-0.2178,-0.2178,-0.2203,-0.2201,-0.2186,-0.2182,-0.2193,-0.2194,-0.2188,-0.2174,-0.2177,-0.2175,-0.2154,-0.217,-0.2169,-0.2168,-0.2167,-0.209,-0.2089,0,0,0,0,0,0,-0.2222,-0.2229,-0.2173,-0.2173,-0.2203,-0.22,-0.2198,-0.2182,-0.2182,-0.2182,-0.2188,-0.2189,-0.2179,-0.2177,-0.2175,-0.215,-0.2169,-0.2167,-0.2167,-0.2091,-0.209,-0.2088,0,0,0,0,0,0,-0.2223,-0.2216,-0.2173,-0.2199,-0.2195,-0.2198,-0.218,-0.2182,-0.2193,-0.2179,-0.2179,-0.2198,-0.2179,-0.2176,-0.2169,-0.215,-0.2167,-0.2166,-0.2093,-0.2091,-0.2089,-0.2103,0,0,0,0,0,0,-0.2225,-0.2217,-0.2202,-0.2198,-0.2193,-0.2178,-0.2179,-0.2181,-0.2187,-0.2189,-0.2187,-0.2185,-0.2179,-0.2171,-0.2168,-0.2148,-0.2165,-0.2094,-0.2092,-0.209,-0.2104,-0.2102,-0.21,0,0,0,0,0,-0.2228,-0.2202,-0.2201,-0.2194,-0.2171,-0.2178,-0.2179,-0.2185,-0.2187,-0.2197,-0.2191,-0.2186,-0.2152,-0.217,-0.2166,-0.2146,-0.2096,-0.2093,-0.209,-0.2105,-0.2102,-0.21,0,0,0,0,0,0,-0.2229,-0.2202,-0.22,-0.2167,-0.2178,-0.2182,-0.2178,-0.2188,-0.2192,-0.2187,-0.2183,-0.2181,-0.2161,-0.2149,-0.2169,-0.2112,-0.2117,-0.2113,-0.2129,-0.2127,-0.2125,-0.2125,-0.2164,0,0,0,0,0,-0.2219,-0.2189,-0.2189,-0.2164,-0.2167,-0.2175,-0.2177,-0.2185,-0.2185,-0.2189,-0.2193,-0.2173,-0.2143,-0.2136,-0.2116,-0.2096,-0.2082,-0.2073,-0.2071,-0.207,-0.2065,-0.2043,-0.2039,-0.2079,-0.2079,-0.2079,0,0,-0.2208,-0.219,-0.2172,-0.2161,-0.2164,-0.2164,-0.2179,-0.218,-0.2174,-0.2182,-0.2179,-0.2171,-0.2135,-0.2111,-0.2099,-0.2103,-0.2047,-0.2066,-0.2065,-0.2061,-0.204,-0.2036,-0.2033,-0.2077,-0.2077,-0.2078,0,0,-0.218,-0.2162,-0.2136,-0.2148,-0.2151,-0.2153,-0.2157,-0.2173,-0.2176,-0.2158,-0.2162,-0.2161,-0.2109,-0.211,-0.2087,-0.2061,-0.2036,-0.2033,-0.2027,-0.2006,-0.2003,-0.2,-0.1971,-0.1966,-0.2033,-0.2033,-0.2033,0,-0.2173,-0.2136,-0.2136,-0.2132,-0.2133,-0.2149,-0.2145,-0.2144,-0.2159,-0.2151,-0.2148,-0.21,-0.2103,-0.207,-0.2066,-0.2059,-0.203,-0.2046,-0.2006,-0.2003,-0.2,-0.1971,-0.1965,-0.2033,-0.2033,-0.2033,-0.2033,0,-0.2135,-0.2118,-0.2109,-0.2097,-0.2106,-0.2103,-0.211,-0.2117,-0.2104,-0.2097,-0.2068,-0.2074,-0.205,-0.2044,-0.2043,-0.2023,-0.2003,-0.2009,-0.2021,-0.1997,-0.1967,-0.1961,-0.2034,-0.2034,-0.2034,-0.2034,0,0,-0.208,-0.208,-0.2077,-0.2082,-0.2089,-0.2095,-0.2078,-0.2067,-0.2055,-0.2042,-0.2019,-0.1994,-0.2013,-0.1992,-0.201,-0.2002,-0.1979,-0.1995,-0.1994,-0.1979,-0.191,-0.1842,-0.1829,-0.1969,-0.1968,-0.1967,-0.1895,0,-0.205,-0.2035,-0.2042,-0.2037,-0.2032,-0.2053,-0.2037,-0.2033,-0.2018,-0.2007,-0.1988,-0.1974,-0.1983,-0.199,-0.1977,-0.1991,-0.1961,-0.1997,-0.1922,-0.1919,-0.1874,-0.1819,-0.1655,-0.1571,-0.1889,-0.1888,-0.1887,0,-0.2005,-0.1999,-0.1988,-0.2005,-0.2007,-0.2012,-0.2007,-0.2002,-0.1981,-0.1966,-0.1946,-0.1943,-0.1947,-0.1953,-0.1924,-0.1938,-0.1915,-0.191,-0.1907,-0.1835,-0.1839,-0.1644,-0.1547,-0.1876,-0.1877,-0.1878,-0.1879,0,-0.1951,-0.1964,-0.1952,-0.196,-0.1975,-0.198,-0.199,-0.1984,-0.1967,-0.1966,-0.1945,-0.1931,-0.1928,-0.1899,-0.1887,-0.1904,-0.1831,-0.186,-0.1761,-0.1757,-0.1597,-0.158,-0.1803,-0.1803,-0.1804,-0.1804,-0.1804,0,-0.1897,-0.1892,-0.1936,-0.1926,-0.1917,-0.1958,-0.194,-0.1951,-0.1946,-0.1919,-0.1938,-0.1905,-0.191,-0.187,-0.1858,-0.1776,-0.1801,-0.1738,-0.1725,-0.1595,-0.1579,-0.1834,-0.1839,-0.1801,-0.1802,-0.1802,-0.1803,0,-0.1822,-0.1847,-0.1844,-0.1876,-0.1884,-0.1886,-0.1902,-0.1886,-0.1909,-0.1881,-0.188,-0.1869,-0.1821,-0.1798,-0.1759,-0.1732,-0.1682,-0.1638,-0.148,-0.1449,-0.163,-0.1636,-0.1532,-0.1529,-0.1526,-0.1524,-0.1522,0,-0.1772,-0.1762,-0.1796,-0.1793,-0.1808,-0.1817,-0.1804,-0.1841,-0.1832,-0.1845,-0.1818,-0.1782,-0.1711,-0.1616,-0.1555,-0.1479,-0.1561,-0.1309,-0.1323,-0.16,-0.1598,-0.1609,-0.1618,-0.1114,-0.1109,-0.1105,-0.1101,0,-0.1675,-0.17,-0.1693,-0.1694,-0.1698,-0.1699,-0.1709,-0.1692,-0.1736,-0.1721,-0.1693,-0.165,-0.1538,-0.1375,-0.1283,-0.1227,-0.1319,-0.1224,-0.1523,-0.122,-0.1203,-0.1203,-0.1226,-0.1064,-0.1068,-0.1071,-0.1073,-0.1074,-0.1602,-0.1588,-0.1591,-0.1584,-0.1595,-0.1594,-0.157,-0.1594,-0.1571,-0.154,-0.1541,-0.1434,-0.1285,-0.1071,-0.1,-0.0976,-0.106,-0.1016,-0.1029,-0.1047,-0.1023,-0.1004,-0.0823,-0.0825,-0.0827,-0.0828,-0.083,0,-0.1493,-0.1496,-0.1482,-0.1486,-0.1473,-0.1511,-0.1504,-0.1461,-0.1434,-0.1405,-0.1352,-0.1051,-0.0899,-0.0829,-0.0726,-0.069,-0.0706,-0.0671,-0.0681,-0.0713,-0.0743,-0.0708,-0.0421,-0.0421,-0.0421,-0.0421,0,0,-0.1443,-0.1392,-0.139,-0.1356,-0.1371,-0.134,-0.1329,-0.1285,-0.1257,-0.1096,-0.1014,-0.0935,-0.084,-0.0656,-0.0552,-0.0517,-0.065,-0.0494,-0.0802,-0.085,-0.0882,-0.089,-0.0864,0,0,0,0,0]},{"header":{"parameterUnit":"m.s-1","parameterCategory":2,"la1":30.2991,"la2":30.254,"lo1":-89.0895,"lo2":-89.0444,"dy":0.0017,"dx":0.0017,"nx":28,"ny":28,"refTime":"2023-08-15T21:00:00:Z","depth":"2","parameterNumber":3,"parameterNumberName":"V-component_of_CURRENTS"},"data":[0,0,0,0,0,0,0,0,0,0,0,0,0,0,0,0,0,0,0,0,0,0,0,0,0,0,0,0,0,0,0,0,0,0,0,0,0,0,0,0,0,0,0,0,0,0,0,0,0,0,0,0,0,0,0,0,0,0,-0.0471,-0.047,0,-0.0447,-0.0446,-0.0446,-0.0369,-0.0367,-0.0365,-0.0364,-0.0335,-0.0336,-0.0337,0,0,0,0,0,0,0,0,0,0,0,0,0,-0.0381,-0.0383,-0.0471,-0.047,-0.047,-0.0447,-0.0446,-0.0446,-0.0369,-0.0367,-0.0365,-0.0363,-0.0335,-0.0336,-0.0337,0,0,0,0,0,0,0,0,0,0,0,0,0,-0.0395,-0.0384,-0.0471,-0.0429,-0.0425,-0.0447,-0.0446,-0.0446,-0.037,-0.0367,-0.0364,-0.0362,-0.0334,-0.0336,-0.0337,-0.0397,0,0,-0.0341,-0.0341,0,0,0,0,0,0,0,0,-0.0395,-0.0399,-0.0435,-0.0432,-0.0427,-0.0408,-0.0404,-0.0429,-0.037,-0.0391,-0.0364,-0.0361,-0.0361,-0.036,-0.0361,-0.0396,-0.0394,-0.0341,-0.0342,-0.0342,-0.0343,0,0,0,0,0,0,0,-0.0394,-0.0399,-0.0461,-0.0435,-0.043,-0.0387,-0.0387,-0.0408,-0.0391,-0.0389,-0.0383,-0.0381,-0.0358,-0.036,-0.036,-0.0394,-0.0341,-0.0342,-0.0343,-0.0343,-0.0274,-0.0272,0,0,0,0,0,0,-0.0404,-0.0399,-0.0462,-0.0461,-0.0404,-0.0391,-0.0391,-0.0417,-0.039,-0.0384,-0.0383,-0.0377,-0.0359,-0.0359,-0.0359,-0.0346,-0.0342,-0.0343,-0.0344,-0.0277,-0.0274,-0.0271,0,0,0,0,0,0,-0.0402,-0.0411,-0.0463,-0.0427,-0.043,-0.0396,-0.0425,-0.0418,-0.0408,-0.0386,-0.0379,-0.0379,-0.0357,-0.0357,-0.0328,-0.0348,-0.0344,-0.0345,-0.028,-0.0276,-0.0272,-0.0375,0,0,0,0,0,0,-0.0401,-0.0411,-0.0414,-0.0429,-0.0433,-0.0454,-0.0428,-0.0419,-0.0411,-0.0403,-0.0382,-0.0376,-0.0355,-0.0326,-0.0329,-0.0349,-0.0346,-0.0283,-0.0278,-0.0274,-0.0375,-0.0375,-0.0375,0,0,0,0,0,-0.0398,-0.0391,-0.0415,-0.0421,-0.0445,-0.0454,-0.0452,-0.0417,-0.0414,-0.0402,-0.0368,-0.0376,-0.0296,-0.0326,-0.033,-0.0352,-0.0286,-0.028,-0.0274,-0.0375,-0.0375,-0.0375,0,0,0,0,0,0,-0.0366,-0.0384,-0.0409,-0.0415,-0.0434,-0.044,-0.0429,-0.0427,-0.0399,-0.04,-0.037,-0.0362,-0.0332,-0.0314,-0.0348,-0.03,-0.0283,-0.0278,-0.0358,-0.0358,-0.0358,-0.0324,-0.0347,0,0,0,0,0,-0.0368,-0.0354,-0.0397,-0.0402,-0.0426,-0.0443,-0.0439,-0.0439,-0.0426,-0.0411,-0.0399,-0.0362,-0.0317,-0.0315,-0.0275,-0.0289,-0.0258,-0.0286,-0.0286,-0.0287,-0.0252,-0.0234,-0.0232,-0.0252,-0.0252,-0.0252,0,0,-0.0364,-0.0365,-0.0365,-0.0391,-0.0417,-0.044,-0.0433,-0.045,-0.0448,-0.0419,-0.0407,-0.0373,-0.031,-0.029,-0.0277,-0.0283,-0.0265,-0.028,-0.0283,-0.0245,-0.0228,-0.0227,-0.0226,-0.0248,-0.0248,-0.0249,0,0,-0.0353,-0.0366,-0.0371,-0.0387,-0.0422,-0.0429,-0.0441,-0.0474,-0.0465,-0.0443,-0.0415,-0.0386,-0.033,-0.031,-0.028,-0.0261,-0.0255,-0.0244,-0.0252,-0.0238,-0.0238,-0.0237,-0.0219,-0.0216,-0.0262,-0.0262,-0.0262,0,-0.034,-0.0371,-0.0372,-0.0394,-0.0405,-0.0431,-0.0465,-0.0461,-0.0468,-0.0457,-0.0425,-0.0338,-0.0327,-0.0296,-0.0271,-0.0272,-0.0246,-0.0281,-0.0246,-0.0244,-0.0242,-0.0224,-0.0219,-0.0267,-0.0266,-0.0266,-0.0265,0,-0.0376,-0.038,-0.0389,-0.0419,-0.0427,-0.0455,-0.0477,-0.0482,-0.0464,-0.0445,-0.0397,-0.0364,-0.0308,-0.0308,-0.0277,-0.0265,-0.0247,-0.025,-0.027,-0.0248,-0.0228,-0.0222,-0.0273,-0.0271,-0.027,-0.0269,0,0,-0.0397,-0.0406,-0.0416,-0.0433,-0.0448,-0.0474,-0.0466,-0.0469,-0.0471,-0.0424,-0.0402,-0.0327,-0.0321,-0.0282,-0.0289,-0.0272,-0.0268,-0.0252,-0.025,-0.0275,-0.0223,-0.0228,-0.0221,-0.0275,-0.0274,-0.0273,-0.0227,0,-0.0433,-0.0464,-0.0456,-0.0486,-0.0513,-0.051,-0.0493,-0.0488,-0.046,-0.0443,-0.0388,-0.0361,-0.0312,-0.0323,-0.0289,-0.0273,-0.0247,-0.0277,-0.0199,-0.0196,-0.0239,-0.0213,-0.0153,-0.0106,-0.022,-0.0219,-0.0219,0,-0.0504,-0.049,-0.0533,-0.0518,-0.054,-0.0553,-0.056,-0.0552,-0.0508,-0.0475,-0.0422,-0.0391,-0.0362,-0.0331,-0.0251,-0.0271,-0.0229,-0.0201,-0.02,-0.0152,-0.0188,-0.0133,-0.009,-0.0207,-0.0208,-0.0209,-0.021,0,-0.0546,-0.0558,-0.0585,-0.0589,-0.0573,-0.0592,-0.0593,-0.0566,-0.0557,-0.0533,-0.0513,-0.0444,-0.0437,-0.0349,-0.027,-0.0271,-0.0167,-0.0187,-0.0137,-0.0138,-0.0038,-0.0032,-0.0103,-0.0103,-0.0103,-0.0103,-0.0103,0,-0.0582,-0.0601,-0.0618,-0.0624,-0.065,-0.0645,-0.0667,-0.0649,-0.0621,-0.0607,-0.0559,-0.0532,-0.0435,-0.0368,-0.0278,-0.0176,-0.0178,-0.0108,-0.0117,-0.0071,-0.0069,-0.0107,-0.0108,-0.0101,-0.0102,-0.0102,-0.0102,0,-0.062,-0.0627,-0.0656,-0.0663,-0.0668,-0.0706,-0.0708,-0.0715,-0.0691,-0.0684,-0.0681,-0.0601,-0.0508,-0.0398,-0.0281,-0.0216,-0.012,-0.0081,-0.0029,-0.0033,-0.0097,-0.0103,-0.0034,-0.0033,-0.0033,-0.0033,-0.0032,0,-0.0636,-0.0657,-0.0698,-0.0719,-0.0727,-0.0761,-0.0764,-0.0745,-0.0745,-0.0712,-0.0704,-0.0633,-0.0493,-0.0316,-0.0234,-0.0087,-0.0082,0.0018,0.0027,-0.0069,-0.0085,-0.0092,-0.0098,0.0115,0.0117,0.0118,0.0119,0,-0.0641,-0.0683,-0.0697,-0.0744,-0.0781,-0.0807,-0.0822,-0.0818,-0.0796,-0.0753,-0.0671,-0.0555,-0.0403,-0.0206,-0.0068,0.0018,-0.0005,0.0043,-0.0055,0.0074,0.0072,0.0055,0.0044,0.0129,0.0128,0.0128,0.0127,0.0127,-0.0659,-0.0691,-0.0729,-0.0779,-0.0816,-0.0852,-0.087,-0.0854,-0.0812,-0.073,-0.0616,-0.0429,-0.0314,-0.0077,0.0044,0.0092,0.0064,0.0116,0.0114,0.0109,0.0104,0.0101,0.0164,0.0163,0.0162,0.0161,0.0161,0,-0.0665,-0.0708,-0.0751,-0.0817,-0.0865,-0.0883,-0.09,-0.0864,-0.0812,-0.0701,-0.0544,-0.0321,-0.0078,0.0027,0.0134,0.0206,0.0212,0.0231,0.025,0.0241,0.0232,0.0232,0.0327,0.0327,0.0327,0.0327,0,0,-0.0675,-0.0715,-0.0744,-0.084,-0.0891,-0.0952,-0.097,-0.0882,-0.0801,-0.0587,-0.0468,-0.0286,-0.0113,-0.0023,0.0119,0.0228,0.0194,0.0235,0.0102,0.0101,0.009,0.0178,0.017,0,0,0,0,0]}],[{"header":{"parameterUnit":"m.s-1","parameterCategory":2,"la1":30.2991,"la2":30.254,"lo1":-89.0895,"lo2":-89.0444,"dy":0.0017,"dx":0.0017,"nx":28,"ny":28,"refTime":"2023-08-15T21:00:00:Z","depth":"4","parameterNumber":2,"parameterNumberName":"U-component_of_CURRENTS"},"data":[0,0,0,0,0,0,0,0,0,0,0,0,0,0,0,0,0,0,0,0,0,0,0,0,0,0,0,0,0,0,0,0,0,0,0,0,0,0,0,0,0,0,0,0,0,0,0,0,0,0,0,0,0,0,0,0,0,0,-0.0651,-0.0651,0,-0.0651,-0.0651,-0.0651,-0.0669,-0.0669,-0.0669,-0.067,-0.0791,-0.0793,-0.0796,0,0,0,0,0,0,0,0,0,0,0,0,0,-0.0663,-0.0663,-0.0651,-0.0651,-0.065,-0.0651,-0.0651,-0.0651,-0.0669,-0.0669,-0.0669,-0.067,-0.079,-0.0793,-0.0797,0,0,0,0,0,0,0,0,0,0,0,0,0,-0.0662,-0.0663,-0.0651,-0.0658,-0.0658,-0.0651,-0.0651,-0.0651,-0.0669,-0.0669,-0.0669,-0.067,-0.0788,-0.0793,-0.0797,-0.0815,0,0,-0.0811,-0.0813,0,0,0,0,0,0,0,0,-0.0662,-0.0662,-0.0657,-0.0657,-0.0658,-0.0658,-0.0699,-0.0711,-0.0668,-0.0667,-0.067,-0.067,-0.0756,-0.0763,-0.0763,-0.0821,-0.0826,-0.0811,-0.0814,-0.0816,-0.0817,0,0,0,0,0,0,0,-0.0662,-0.0662,-0.0653,-0.0657,-0.0657,-0.066,-0.066,-0.0701,-0.0713,-0.0667,-0.0668,-0.0665,-0.0758,-0.0759,-0.0766,-0.0828,-0.0811,-0.0815,-0.0818,-0.0819,-0.096,-0.0962,0,0,0,0,0,0,-0.0658,-0.0662,-0.0653,-0.0652,-0.0659,-0.0659,-0.066,-0.0659,-0.071,-0.0716,-0.0664,-0.0665,-0.0751,-0.0761,-0.0771,-0.0885,-0.0816,-0.082,-0.0822,-0.0959,-0.0961,-0.0962,0,0,0,0,0,0,-0.0658,-0.0657,-0.0653,-0.0655,-0.0655,-0.0658,-0.0658,-0.0659,-0.0677,-0.0706,-0.0715,-0.0683,-0.0752,-0.0765,-0.0822,-0.0887,-0.0822,-0.0826,-0.0958,-0.096,-0.0961,-0.1057,0,0,0,0,0,0,-0.0659,-0.0657,-0.0672,-0.0655,-0.0654,-0.0662,-0.0657,-0.0659,-0.0673,-0.0675,-0.0725,-0.0735,-0.0753,-0.0815,-0.0827,-0.0892,-0.0829,-0.0957,-0.0959,-0.0961,-0.1053,-0.1062,-0.107,0,0,0,0,0,-0.0659,-0.0671,-0.0673,-0.0673,-0.0669,-0.0662,-0.0663,-0.0668,-0.0673,-0.0685,-0.0719,-0.0734,-0.0836,-0.082,-0.0833,-0.0901,-0.0956,-0.0958,-0.0961,-0.1049,-0.106,-0.107,0,0,0,0,0,0,-0.0677,-0.0673,-0.0675,-0.0685,-0.0681,-0.0665,-0.0672,-0.0678,-0.071,-0.0716,-0.075,-0.0763,-0.0844,-0.0843,-0.0824,-0.0941,-0.0899,-0.0904,-0.0961,-0.0972,-0.0981,-0.1021,-0.0833,0,0,0,0,0,-0.0688,-0.0696,-0.069,-0.0692,-0.0693,-0.0687,-0.0691,-0.069,-0.0705,-0.0719,-0.0763,-0.0804,-0.0859,-0.0891,-0.0932,-0.0993,-0.0964,-0.104,-0.1049,-0.1057,-0.1095,-0.1075,-0.1086,-0.097,-0.097,-0.097,0,0,-0.0688,-0.0689,-0.0691,-0.0697,-0.069,-0.0691,-0.0691,-0.0691,-0.0706,-0.073,-0.0788,-0.0844,-0.0881,-0.0957,-0.0992,-0.0969,-0.1067,-0.106,-0.1067,-0.1102,-0.1079,-0.109,-0.11,-0.0972,-0.0971,-0.0971,0,0,-0.0682,-0.0697,-0.0701,-0.0703,-0.0701,-0.0701,-0.0707,-0.0716,-0.074,-0.0793,-0.0826,-0.0896,-0.0981,-0.1017,-0.1046,-0.1115,-0.1116,-0.1157,-0.1242,-0.1222,-0.1232,-0.124,-0.1188,-0.1191,-0.1159,-0.1159,-0.1159,0,-0.0689,-0.0681,-0.07,-0.0701,-0.0696,-0.0708,-0.0702,-0.073,-0.0765,-0.0795,-0.082,-0.0971,-0.0997,-0.1097,-0.1154,-0.1137,-0.1139,-0.1204,-0.1235,-0.1243,-0.125,-0.1194,-0.1196,-0.1164,-0.1163,-0.1163,-0.1162,0,-0.0673,-0.0676,-0.0672,-0.068,-0.0693,-0.0679,-0.0711,-0.0746,-0.079,-0.0829,-0.0953,-0.1023,-0.1115,-0.115,-0.1199,-0.1297,-0.1284,-0.1249,-0.1212,-0.1267,-0.1204,-0.1205,-0.1171,-0.1169,-0.1168,-0.1166,0,0,-0.0656,-0.066,-0.0659,-0.0655,-0.0672,-0.0673,-0.0712,-0.0749,-0.0784,-0.0893,-0.0958,-0.1118,-0.1206,-0.1248,-0.1323,-0.1355,-0.14,-0.1379,-0.1375,-0.1334,-0.1374,-0.124,-0.1227,-0.1407,-0.1409,-0.141,-0.1299,0,-0.0628,-0.0617,-0.0633,-0.0625,-0.0618,-0.0647,-0.068,-0.0732,-0.0804,-0.0879,-0.0999,-0.1115,-0.1227,-0.1319,-0.1377,-0.1412,-0.1416,-0.1434,-0.1323,-0.1318,-0.1199,-0.1227,-0.1415,-0.1299,-0.1299,-0.1299,-0.1299,0,-0.06,-0.0598,-0.0583,-0.0588,-0.059,-0.0609,-0.0659,-0.0698,-0.0807,-0.0882,-0.1042,-0.1144,-0.1301,-0.1339,-0.1441,-0.1477,-0.1459,-0.1454,-0.1446,-0.1301,-0.1187,-0.1238,-0.1299,-0.1299,-0.1299,-0.1299,-0.1299,0,-0.0563,-0.0558,-0.0542,-0.0542,-0.0565,-0.0587,-0.0621,-0.0712,-0.0764,-0.0923,-0.0995,-0.117,-0.128,-0.1329,-0.1374,-0.1442,-0.1388,-0.1416,-0.1251,-0.1238,-0.135,-0.1343,-0.1414,-0.1414,-0.1414,-0.1415,-0.1415,0,-0.0513,-0.0505,-0.0532,-0.0526,-0.0523,-0.0577,-0.0614,-0.068,-0.0795,-0.0839,-0.104,-0.1091,-0.1306,-0.1308,-0.1333,-0.1285,-0.1328,-0.1283,-0.1214,-0.1386,-0.1384,-0.1348,-0.1342,-0.141,-0.1411,-0.1412,-0.1413,0,-0.0476,-0.048,-0.0469,-0.0497,-0.0503,-0.0526,-0.0599,-0.0642,-0.0777,-0.0839,-0.091,-0.1074,-0.1103,-0.1178,-0.1191,-0.1206,-0.1145,-0.1073,-0.1211,-0.1146,-0.1033,-0.1033,-0.0962,-0.0956,-0.0952,-0.0948,-0.0945,0,-0.0454,-0.0445,-0.0447,-0.0444,-0.0462,-0.0499,-0.0518,-0.0632,-0.0668,-0.0769,-0.0772,-0.0867,-0.0942,-0.0857,-0.094,-0.0919,-0.0915,-0.0899,-0.1076,-0.1054,-0.0993,-0.1,-0.1006,-0.0937,-0.0936,-0.0935,-0.0934,0,-0.0421,-0.0426,-0.0415,-0.0406,-0.042,-0.0415,-0.045,-0.0471,-0.0567,-0.0674,-0.066,-0.0707,-0.0695,-0.0758,-0.073,-0.0707,-0.0953,-0.0854,-0.0868,-0.1034,-0.1023,-0.0969,-0.0981,-0.0918,-0.092,-0.0922,-0.0923,0,-0.0405,-0.0384,-0.0372,-0.0363,-0.0357,-0.0336,-0.0363,-0.0376,-0.042,-0.0538,-0.0468,-0.0534,-0.061,-0.0627,-0.0553,-0.0578,-0.0653,-0.072,-0.0743,-0.0761,-0.076,-0.0721,-0.047,0,0,0,0,0,-0.0382,-0.035,-0.0335,-0.0299,-0.0292,-0.0285,-0.0305,-0.0341,-0.0391,-0.0366,-0.0442,-0.04,-0.0435,-0.0446,-0.0449,-0.0495,-0.0654,-0.0499,-0.0741,-0.083,-0.0849,-0.0874,0,0,0,0,0,0,-0.0357,-0.0336,-0.0316,-0.0251,-0.022,-0.0199,-0.021,-0.025,-0.0235,-0.0299,-0.0302,-0.0377,-0.0392,-0.0413,-0.0433,-0.0445,-0.0597,-0.0534,-0.0534,-0.082,-0.0837,-0.0851,-0.0883,0,0,0,0,0]},{"header":{"parameterUnit":"m.s-1","parameterCategory":2,"la1":30.2991,"la2":30.254,"lo1":-89.0895,"lo2":-89.0444,"dy":0.0017,"dx":0.0017,"nx":28,"ny":28,"refTime":"2023-08-15T21:00:00:Z","depth":"4","parameterNumber":3,"parameterNumberName":"V-component_of_CURRENTS"},"data":[0,0,0,0,0,0,0,0,0,0,0,0,0,0,0,0,0,0,0,0,0,0,0,0,0,0,0,0,0,0,0,0,0,0,0,0,0,0,0,0,0,0,0,0,0,0,0,0,0,0,0,0,0,0,0,0,0,0,-0.039,-0.0391,0,-0.0417,-0.0417,-0.0417,-0.0404,-0.0403,-0.0403,-0.0402,-0.0392,-0.0393,-0.0393,0,0,0,0,0,0,0,0,0,0,0,0,0,-0.034,-0.0341,-0.039,-0.0391,-0.0391,-0.0417,-0.0417,-0.0417,-0.0404,-0.0403,-0.0402,-0.0402,-0.0392,-0.0393,-0.0393,0,0,0,0,0,0,0,0,0,0,0,0,0,-0.0364,-0.0341,-0.039,-0.0387,-0.0387,-0.0416,-0.0417,-0.0417,-0.0404,-0.0403,-0.0402,-0.0401,-0.0392,-0.0393,-0.0393,-0.0418,0,0,-0.0395,-0.0395,0,0,0,0,0,0,0,0,-0.0362,-0.0366,-0.0387,-0.0388,-0.0388,-0.0406,-0.0396,-0.0416,-0.0405,-0.0398,-0.0402,-0.0401,-0.0394,-0.0395,-0.0402,-0.0417,-0.0417,-0.0395,-0.0395,-0.0396,-0.0396,0,0,0,0,0,0,0,-0.0361,-0.0364,-0.0401,-0.0388,-0.0388,-0.0389,-0.0391,-0.04,-0.0401,-0.0398,-0.0398,-0.0401,-0.0394,-0.0402,-0.0402,-0.0417,-0.0395,-0.0396,-0.0396,-0.0396,-0.0482,-0.0484,0,0,0,0,0,0,-0.0358,-0.0363,-0.04,-0.0402,-0.0372,-0.039,-0.0393,-0.0401,-0.0402,-0.0401,-0.0402,-0.04,-0.0401,-0.0401,-0.0402,-0.0469,-0.0396,-0.0396,-0.0397,-0.048,-0.0482,-0.0484,0,0,0,0,0,0,-0.0357,-0.0362,-0.0399,-0.0382,-0.0387,-0.0392,-0.0402,-0.0402,-0.0418,-0.0404,-0.0403,-0.0417,-0.0401,-0.0401,-0.0426,-0.0467,-0.0396,-0.0397,-0.0478,-0.0481,-0.0483,-0.0578,0,0,0,0,0,0,-0.0356,-0.0361,-0.0371,-0.0382,-0.0388,-0.0432,-0.0403,-0.0403,-0.042,-0.0419,-0.0417,-0.0415,-0.04,-0.0425,-0.0427,-0.0466,-0.0397,-0.0475,-0.0479,-0.0482,-0.0573,-0.0584,-0.0594,0,0,0,0,0,-0.0354,-0.0369,-0.0371,-0.0376,-0.04,-0.0433,-0.0437,-0.0436,-0.0422,-0.0443,-0.044,-0.0415,-0.0449,-0.0428,-0.0429,-0.0469,-0.0473,-0.0478,-0.0482,-0.0568,-0.0582,-0.0594,0,0,0,0,0,0,-0.035,-0.037,-0.0372,-0.0392,-0.0419,-0.0431,-0.0449,-0.0448,-0.0463,-0.0462,-0.044,-0.0439,-0.0479,-0.0462,-0.0439,-0.0505,-0.0457,-0.0462,-0.0522,-0.0535,-0.0546,-0.0521,-0.0398,0,0,0,0,0,-0.0356,-0.0373,-0.0396,-0.0414,-0.0432,-0.0445,-0.0458,-0.0463,-0.0475,-0.0481,-0.0481,-0.0483,-0.0499,-0.0505,-0.0515,-0.0551,-0.0502,-0.0578,-0.0588,-0.0597,-0.0579,-0.0564,-0.0571,-0.0498,-0.0498,-0.0498,0,0,-0.0363,-0.0372,-0.0384,-0.0415,-0.0435,-0.0473,-0.0451,-0.0485,-0.0514,-0.0478,-0.0521,-0.0524,-0.0517,-0.056,-0.0576,-0.055,-0.0591,-0.0603,-0.061,-0.0586,-0.0569,-0.0576,-0.0581,-0.0501,-0.0501,-0.05,0,0,-0.0386,-0.0396,-0.0424,-0.0451,-0.0487,-0.05,-0.0515,-0.0545,-0.056,-0.0604,-0.0586,-0.0612,-0.0634,-0.0641,-0.0645,-0.0719,-0.065,-0.0725,-0.0757,-0.0745,-0.075,-0.0753,-0.0691,-0.0688,-0.0728,-0.0728,-0.0728,0,-0.0387,-0.0424,-0.044,-0.0476,-0.0502,-0.0517,-0.0561,-0.0586,-0.0619,-0.0638,-0.0629,-0.0671,-0.0674,-0.0712,-0.0736,-0.0744,-0.0697,-0.0711,-0.0757,-0.0759,-0.0762,-0.0696,-0.0692,-0.0733,-0.0733,-0.0732,-0.0732,0,-0.0437,-0.0469,-0.0491,-0.054,-0.0576,-0.0615,-0.0654,-0.0688,-0.0705,-0.0726,-0.0775,-0.078,-0.0793,-0.0815,-0.0796,-0.0824,-0.0772,-0.0774,-0.072,-0.0774,-0.0702,-0.0696,-0.0741,-0.0739,-0.0737,-0.0736,0,0,-0.0422,-0.0506,-0.0512,-0.0548,-0.0611,-0.0643,-0.0704,-0.0759,-0.079,-0.0829,-0.0861,-0.0903,-0.0892,-0.0892,-0.0882,-0.0872,-0.0857,-0.0824,-0.0821,-0.0752,-0.078,-0.0729,-0.0716,-0.0862,-0.0862,-0.0862,-0.0718,0,-0.0451,-0.0521,-0.0561,-0.0637,-0.0682,-0.072,-0.0775,-0.0828,-0.0862,-0.0899,-0.0914,-0.0945,-0.0927,-0.0931,-0.0923,-0.0886,-0.0846,-0.0892,-0.0744,-0.0738,-0.068,-0.0711,-0.0862,-0.0713,-0.0712,-0.0711,-0.071,0,-0.0486,-0.0524,-0.0604,-0.0684,-0.0709,-0.0764,-0.0838,-0.0891,-0.0948,-0.0973,-0.0998,-0.0989,-0.0996,-0.0965,-0.0902,-0.0927,-0.0844,-0.0801,-0.0795,-0.0703,-0.0677,-0.0651,-0.0698,-0.0699,-0.07,-0.07,-0.0701,0,-0.0466,-0.0553,-0.0613,-0.0643,-0.0741,-0.0789,-0.0846,-0.0921,-0.0963,-0.1016,-0.1025,-0.1036,-0.102,-0.0962,-0.0871,-0.0879,-0.077,-0.0779,-0.0639,-0.0632,-0.0675,-0.0673,-0.0693,-0.0693,-0.0693,-0.0693,-0.0694,0,-0.0475,-0.0523,-0.0614,-0.0648,-0.0718,-0.0802,-0.0876,-0.0931,-0.1004,-0.1022,-0.1057,-0.1023,-0.1013,-0.0945,-0.0869,-0.0733,-0.0766,-0.0627,-0.0599,-0.0718,-0.0722,-0.0669,-0.0668,-0.0688,-0.0689,-0.069,-0.0691,0,-0.0462,-0.0517,-0.0584,-0.0683,-0.0717,-0.0777,-0.0887,-0.0933,-0.1006,-0.1019,-0.1027,-0.1017,-0.0923,-0.0883,-0.077,-0.0711,-0.0609,-0.0534,-0.063,-0.0612,-0.0468,-0.0474,-0.0372,-0.037,-0.0367,-0.0365,-0.0364,0,-0.0467,-0.0503,-0.0591,-0.0628,-0.0683,-0.077,-0.0824,-0.0926,-0.0941,-0.0969,-0.0939,-0.0889,-0.0847,-0.0671,-0.0634,-0.0509,-0.0478,-0.0424,-0.0475,-0.0455,-0.0438,-0.0448,-0.0457,-0.036,-0.0359,-0.0358,-0.0358,0,-0.0467,-0.0498,-0.0541,-0.0602,-0.0666,-0.0725,-0.0789,-0.0797,-0.0865,-0.0912,-0.0834,-0.0779,-0.0663,-0.059,-0.0508,-0.0411,-0.0489,-0.0398,-0.0403,-0.045,-0.0438,-0.0427,-0.0438,-0.035,-0.0351,-0.0352,-0.0352,0,-0.0458,-0.0474,-0.0519,-0.0569,-0.0633,-0.0669,-0.0715,-0.0716,-0.0749,-0.0769,-0.0707,-0.0659,-0.0637,-0.0527,-0.0437,-0.0377,-0.0349,-0.0331,-0.0339,-0.0347,-0.0407,-0.0393,-0.0253,0,0,0,0,0,-0.0449,-0.0453,-0.0489,-0.054,-0.0596,-0.0633,-0.0678,-0.0711,-0.0729,-0.066,-0.0701,-0.0588,-0.0489,-0.0448,-0.0368,-0.0383,-0.0342,-0.0286,-0.0327,-0.0304,-0.0313,-0.0387,0,0,0,0,0,0,-0.0445,-0.0465,-0.0466,-0.0494,-0.0526,-0.0586,-0.0616,-0.0639,-0.0589,-0.0604,-0.0545,-0.0548,-0.0448,-0.053,-0.0359,-0.0343,-0.0352,-0.0253,-0.025,-0.0298,-0.0307,-0.0315,-0.0394,0,0,0,0,0]}]]